• In India
  • List of Countries
  • For 7 days
  • Water Temperature
  • Satellite Maps
  • Weather Map
  • Weather Widgets
  • user-avatar
    Login

    Hourly Weather Darwin

    Today, 10 December, Monday

    Time Temperature Precipitation Wind Pressure Humidity
    00:00 +29°C° 3 mm 4 mps 755 mmHg 82%
    01:00 +29°C° 0 mm 4 mps 755 mmHg 81%
    02:00 +29°C° 0 mm 3 mps 754 mmHg 80%
    03:00 +29°C° 0 mm 3 mps 754 mmHg 81%
    04:00 +29°C° 0 mm 3 mps 754 mmHg 81%
    05:00 +29°C° 0 mm 3 mps 754 mmHg 82%
    06:00 +29°C° 0 mm 3 mps 754 mmHg 83%
    07:00 +31°C° 0.1 mm 3 mps 754 mmHg 76%
    08:00 +34°C° 0.1 mm 3 mps 754 mmHg 70%
    09:00 +36°C° 0.1 mm 4 mps 755 mmHg 64%
    10:00 +37°C° 0.1 mm 4 mps 754 mmHg 59%
    11:00 +38°C° 0.1 mm 4 mps 754 mmHg 54%
    12:00 +40°C° 0.1 mm 5 mps 754 mmHg 49%
    13:00 +40°C° 0.1 mm 5 mps 753 mmHg 50%
    14:00 +39°C° 0.1 mm 5 mps 753 mmHg 52%
    15:00 +39°C° 0.1 mm 6 mps 753 mmHg 53%
    16:00 +36°C° 0.4 mm 5 mps 753 mmHg 57%
    17:00 +35°C° 0.4 mm 5 mps 753 mmHg 61%
    18:00 +34°C° 0.4 mm 5 mps 753 mmHg 65%
    19:00 +34°C° 0 mm 5 mps 753 mmHg 67%
    20:00 +33°C° 0 mm 4 mps 754 mmHg 69%
    21:00 +33°C° 0 mm 4 mps 754 mmHg 71%
    22:00 +32°C° 0.2 mm 4 mps 754 mmHg 72%
    23:00 +31°C° 0.2 mm 3 mps 754 mmHg 73%

    Tomorrow, 11 December, Tuesday

    Time Temperature Precipitation Wind Pressure Humidity
    00:00 +31°C° 0.2 mm 3 mps 754 mmHg 74%
    01:00 +31°C° 0 mm 3 mps 754 mmHg 76%
    02:00 +32°C° 0 mm 4 mps 753 mmHg 78%
    03:00 +30°C° 0 mm 4 mps 753 mmHg 80%
    04:00 +30°C° 0 mm 4 mps 753 mmHg 81%
    05:00 +30°C° 0 mm 4 mps 754 mmHg 83%
    06:00 +30°C° 0 mm 4 mps 754 mmHg 84%
    07:00 +33°C° 0.2 mm 4 mps 754 mmHg 78%
    08:00 +34°C° 0.2 mm 4 mps 755 mmHg 71%
    09:00 +36°C° 0.2 mm 4 mps 755 mmHg 65%
    10:00 +37°C° 0 mm 5 mps 755 mmHg 60%
    11:00 +39°C° 0 mm 5 mps 755 mmHg 56%
    12:00 +40°C° 0 mm 5 mps 754 mmHg 51%
    13:00 +40°C° 0.3 mm 5 mps 754 mmHg 52%
    14:00 +39°C° 0.3 mm 6 mps 753 mmHg 53%
    15:00 +39°C° 0.3 mm 6 mps 753 mmHg 54%
    16:00 +36°C° 1.1 mm 5 mps 753 mmHg 61%
    17:00 +35°C° 1.1 mm 5 mps 753 mmHg 68%
    18:00 +33°C° 1.1 mm 5 mps 753 mmHg 74%
    19:00 +33°C° 0.7 mm 5 mps 754 mmHg 76%
    20:00 +33°C° 0.7 mm 5 mps 754 mmHg 79%
    21:00 +32°C° 0.7 mm 4 mps 755 mmHg 81%
    22:00 +32°C° 1.1 mm 4 mps 755 mmHg 83%
    23:00 +32°C° 1.1 mm 5 mps 755 mmHg 85%

    Day after tomorrow, 12 December, Wednesday

    Time Temperature Precipitation Wind Pressure Humidity
    00:00 +30°C° 1.1 mm 5 mps 754 mmHg 87%
    01:00 +30°C° 0.2 mm 5 mps 754 mmHg 87%
    02:00 +32°C° 0.2 mm 5 mps 753 mmHg 87%
    03:00 +32°C° 0.2 mm 5 mps 753 mmHg 87%
    04:00 +32°C° 0 mm 5 mps 753 mmHg 88%
    05:00 +32°C° 0 mm 5 mps 753 mmHg 88%
    06:00 +32°C° 0 mm 5 mps 753 mmHg 88%
    07:00 +33°C° 0 mm 6 mps 754 mmHg 82%
    08:00 +34°C° 0 mm 6 mps 754 mmHg 76%
    09:00 +35°C° 0 mm 6 mps 754 mmHg 69%
    10:00 +36°C° 0 mm 6 mps 754 mmHg 64%
    11:00 +39°C° 0 mm 6 mps 754 mmHg 59%
    12:00 +40°C° 0 mm 6 mps 754 mmHg 53%
    13:00 +39°C° 0.2 mm 6 mps 753 mmHg 54%
    14:00 +39°C° 0.2 mm 6 mps 753 mmHg 54%
    15:00 +39°C° 0.2 mm 6 mps 752 mmHg 54%
    16:00 +38°C° 0 mm 6 mps 752 mmHg 60%
    17:00 +35°C° 0 mm 6 mps 752 mmHg 67%
    18:00 +34°C° 0 mm 5 mps 752 mmHg 73%
    19:00 +34°C° 0 mm 5 mps 753 mmHg 76%
    20:00 +33°C° 0 mm 5 mps 753 mmHg 79%
    21:00 +33°C° 0 mm 5 mps 754 mmHg 82%
    22:00 +33°C° 0.1 mm 6 mps 754 mmHg 82%
    23:00 +33°C° 0.1 mm 6 mps 754 mmHg 83%

    13 December, Thursday

    Time Temperature Precipitation Wind Pressure Humidity
    00:00 +33°C° 0.1 mm 6 mps 754 mmHg 83%
    01:00 +33°C° 0.1 mm 6 mps 753 mmHg 83%
    02:00 +33°C° 0.1 mm 6 mps 752 mmHg 83%
    03:00 +32°C° 0.1 mm 7 mps 752 mmHg 83%
    04:00 +32°C° 0 mm 6 mps 752 mmHg 83%
    05:00 +32°C° 0 mm 6 mps 753 mmHg 83%
    06:00 +32°C° 0 mm 6 mps 753 mmHg 82%
    07:00 +33°C° 0.1 mm 6 mps 754 mmHg 80%
    08:00 +34°C° 0.1 mm 6 mps 754 mmHg 77%
    09:00 +34°C° 0.1 mm 6 mps 754 mmHg 74%
    10:00 +35°C° 0 mm 7 mps 754 mmHg 70%
    11:00 +36°C° 0 mm 7 mps 754 mmHg 65%
    12:00 +38°C° 0 mm 7 mps 753 mmHg 61%
    13:00 +38°C° 0 mm 7 mps 753 mmHg 61%
    14:00 +38°C° 0 mm 7 mps 752 mmHg 60%
    15:00 +38°C° 0 mm 8 mps 752 mmHg 60%
    16:00 +36°C° 0 mm 7 mps 752 mmHg 63%
    17:00 +35°C° 0 mm 7 mps 752 mmHg 66%
    18:00 +34°C° 0 mm 7 mps 752 mmHg 70%
    19:00 +34°C° 0 mm 6 mps 753 mmHg 72%
    20:00 +34°C° 0 mm 6 mps 753 mmHg 75%
    21:00 +33°C° 0 mm 6 mps 754 mmHg 78%
    22:00 +33°C° 0.1 mm 6 mps 753 mmHg 78%
    23:00 +33°C° 0.1 mm 6 mps 753 mmHg 79%

    14 December, Friday

    Time Temperature Precipitation Wind Pressure Humidity
    00:00 +33°C° 0.1 mm 6 mps 753 mmHg 80%
    01:00 +33°C° 0.1 mm 6 mps 753 mmHg 80%
    02:00 +32°C° 0.1 mm 7 mps 752 mmHg 80%
    03:00 +32°C° 0.1 mm 7 mps 752 mmHg 81%
    04:00 +32°C° 0.3 mm 7 mps 753 mmHg 81%
    05:00 +32°C° 0.3 mm 7 mps 753 mmHg 81%
    06:00 +32°C° 0.3 mm 8 mps 754 mmHg 81%
    07:00 +32°C° 0 mm 7 mps 754 mmHg 78%
    08:00 +33°C° 0 mm 7 mps 754 mmHg 75%
    09:00 +33°C° 0 mm 7 mps 755 mmHg 73%
    10:00 +35°C° 0 mm 7 mps 754 mmHg 68%
    11:00 +36°C° 0 mm 7 mps 754 mmHg 63%
    12:00 +38°C° 0 mm 7 mps 753 mmHg 58%
    13:00 +38°C° 0 mm 7 mps 753 mmHg 56%
    14:00 +39°C° 0 mm 7 mps 752 mmHg 54%
    15:00 +39°C° 0 mm 6 mps 751 mmHg 52%
    16:00 +38°C° 0 mm 6 mps 752 mmHg 55%
    17:00 +36°C° 0 mm 6 mps 752 mmHg 58%
    18:00 +35°C° 0 mm 6 mps 753 mmHg 60%
    19:00 +34°C° 0.2 mm 5 mps 753 mmHg 66%
    20:00 +33°C° 0.2 mm 5 mps 754 mmHg 71%
    21:00 +32°C° 0.2 mm 5 mps 754 mmHg 77%
    22:00 +32°C° 0.5 mm 5 mps 754 mmHg 78%
    23:00 +32°C° 0.5 mm 4 mps 754 mmHg 80%

    15 December, Saturday

    Time Temperature Precipitation Wind Pressure Humidity
    00:00 +32°C° 0.5 mm 4 mps 753 mmHg 81%
    01:00 +32°C° 0 mm 5 mps 753 mmHg 82%
    02:00 +32°C° 0 mm 5 mps 752 mmHg 83%
    03:00 +32°C° 0 mm 6 mps 752 mmHg 84%
    04:00 +32°C° 0.9 mm 6 mps 752 mmHg 85%
    05:00 +32°C° 0.9 mm 6 mps 753 mmHg 85%
    06:00 +30°C° 0.9 mm 5 mps 754 mmHg 86%
    07:00 +32°C° 1.8 mm 5 mps 754 mmHg 84%
    08:00 +32°C° 1.8 mm 5 mps 754 mmHg 81%
    09:00 +33°C° 1.8 mm 4 mps 755 mmHg 79%
    10:00 +33°C° 0.6 mm 4 mps 754 mmHg 75%
    11:00 +34°C° 0.6 mm 5 mps 754 mmHg 71%
    12:00 +35°C° 0.6 mm 5 mps 754 mmHg 67%
    13:00 +36°C° 0.4 mm 4 mps 753 mmHg 64%
    14:00 +36°C° 0.4 mm 4 mps 753 mmHg 62%
    15:00 +37°C° 0.4 mm 4 mps 752 mmHg 59%
    16:00 +36°C° 0.1 mm 4 mps 752 mmHg 64%
    17:00 +35°C° 0.1 mm 4 mps 753 mmHg 68%
    18:00 +34°C° 0.1 mm 4 mps 753 mmHg 73%
    19:00 +33°C° 0.3 mm 4 mps 753 mmHg 77%
    20:00 +32°C° 0.3 mm 4 mps 754 mmHg 82%
    21:00 +30°C° 0.3 mm 4 mps 754 mmHg 86%
    22:00 +30°C° 0.2 mm 4 mps 754 mmHg 87%
    23:00 +30°C° 0.2 mm 4 mps 754 mmHg 88%
    Show more